Tracking 30685 objects as of 17-Jun-2025
HD Live streaming from Space Station
objects crossing your sky now

COSMOS 1275 DEB

Track COSMOS 1275 DEB now!
10-day predictions


NORAD ID: 12706
Int'l Code: 1981-053BA
Perigee: 892.7 km
Apogee: 1,047.2 km
Inclination: 82.9 °
Period: 104.3 minutes
Semi major axis: 7340 km
RCS: 0.0482 m2 (small)
Launch date: June 4, 1981
Source: Commonwealth of Independent States (former USSR) (CIS)
Launch site: PLESETSK MISSILE AND SPACE COMPLEX (PKMTR)

Note: This is SATELLITE DEBRIS
Your satellite tracking list
Your tracking list is empty




NASA's NSSDC Master Catalog

Two Line Element Set (TLE):
1 12706U 81053BA  25168.16634098  .00000733  00000-0  66104-3 0  9995
2 12706  82.8813 215.6204 0105254 343.3653  70.3159 13.80297993189040
Source of the keplerian elements: AFSPC